| time (UTC) | temp C | wind direction | speed KPH | gust KPH | rain 1hr cm | rain 24hr cm | rain mn cm | humidity % | barometer mb |
| 20260508180056 | 19 | 200 | 24.1 | 40.2 | 0.00 | 0.00 | 0.00 | 42 | 1011.5 |
| 20260508174547 | 20 | 192 | 24.1 | 41.8 | 0.00 | 0.00 | 0.00 | 41 | 1011.7 |
| 20260508173045 | 19 | 188 | 24.1 | 41.8 | 0.00 | 0.00 | 0.00 | 43 | 1012.1 |
| 20260508171540 | 19 | 190 | 24.1 | 38.6 | 0.00 | 0.00 | 0.00 | 44 | 1012.4 |
| 20260508170039 | 19 | 203 | 27.4 | 35.4 | 0.00 | 0.00 | 0.00 | 44 | 1012.3 |
| 20260508164533 | 18 | 181 | 27.4 | 41.8 | 0.00 | 0.00 | 0.00 | 45 | 1012.6 |
| 20260508163031 | 18 | 196 | 33.8 | 43.5 | 0.00 | 0.00 | 0.00 | 45 | 1012.9 |
| 20260508161530 | 18 | 153 | 24.1 | 41.8 | 0.00 | 0.00 | 0.00 | 48 | 1013.1 |
| 20260508160028 | 17 | 184 | 30.6 | 38.6 | 0.00 | 0.00 | 0.00 | 47 | 1013.2 |
| 20260508154520 | 16 | 194 | 24.1 | 37.0 | 0.00 | 0.00 | 0.00 | 50 | 1013.3 |
| 20260508153022 | 16 | 177 | 24.1 | 32.2 | 0.00 | 0.00 | 0.00 | 52 | 1013.5 |
| 20260508151515 | 16 | 177 | 24.1 | 35.4 | 0.00 | 0.00 | 0.00 | 52 | 1013.8 |
| 20260508150014 | 16 | 194 | 22.5 | 33.8 | 0.00 | 0.00 | 0.00 | 54 | 1013.9 |
| 20260508144508 | 15 | 190 | 29.0 | 38.6 | 0.00 | 0.00 | 0.00 | 52 | 1014.1 |
| 20260508143016 | 15 | 194 | 29.0 | 41.8 | 0.00 | 0.00 | 0.00 | 53 | 1014.1 |
| 20260508141502 | 14 | 188 | 30.6 | 38.6 | 0.00 | 0.00 | 0.00 | 53 | 1014.2 |
| 20260508140058 | 13 | 174 | 22.5 | 32.2 | 0.00 | 0.00 | 0.00 | 57 | 1014.1 |
| 20260508134558 | 12 | 183 | 22.5 | 30.6 | 0.00 | 0.00 | 0.00 | 59 | 1014.2 |
| 20260508133102 | 12 | 180 | 19.3 | 27.4 | 0.00 | 0.00 | 0.00 | 63 | 1014.2 |
| 20260508131548 | 11 | 162 | 20.9 | 29.0 | 0.00 | 0.00 | 0.00 | 64 | 1014.3 |
| 20260508130043 | 10 | 175 | 17.7 | 27.4 | 0.00 | 0.00 | 0.00 | 68 | 1014.3 |
| 20260508124543 | 10 | 174 | 17.7 | 27.4 | 0.00 | 0.00 | 0.00 | 66 | 1014.4 |
| 20260508123052 | 10 | 176 | 20.9 | 25.7 | 0.00 | 0.00 | 0.00 | 65 | 1014.3 |
| 20260508121549 | 10 | 166 | 19.3 | 25.7 | 0.00 | 0.00 | 0.00 | 67 | 1014.2 |
| 20260508120033 | 9 | 178 | 16.1 | 20.9 | 0.00 | 0.00 | 0.00 | 69 | 1014.0 |
| 20260508114530 | 8 | 170 | 16.1 | 22.5 | 0.00 | 0.00 | 0.00 | 70 | 1014.0 |
| 20260508113031 | 8 | 167 | 14.5 | 22.5 | 0.00 | 0.00 | 0.00 | 71 | 1014.0 |
| 20260508111527 | 8 | 183 | 12.9 | 19.3 | 0.00 | 0.00 | 0.00 | 72 | 1013.8 |
| 20260508110023 | 7 | 179 | 12.9 | 19.3 | 0.00 | 0.00 | 0.00 | 75 | 1013.5 |
| 20260508104522 | 7 | 164 | 9.7 | 14.5 | 0.00 | 0.00 | 0.00 | 76 | 1013.5 |
| 20260508103019 | 6 | 171 | 11.3 | 12.9 | 0.00 | 0.00 | 0.00 | 77 | 1013.5 |
| 20260508101516 | 6 | 172 | 9.7 | 12.9 | 0.00 | 0.00 | 0.00 | 76 | 1013.5 |
| 20260508100018 | 6 | 175 | 11.3 | 12.9 | 0.00 | 0.00 | 0.00 | 78 | 1013.5 |
| 20260508094513 | 5 | 174 | 6.4 | 9.7 | 0.00 | 0.00 | 0.00 | 80 | 1013.4 |
| 20260508093020 | 6 | 180 | 8.0 | 11.3 | 0.00 | 0.00 | 0.00 | 80 | 1013.5 |
| 20260508091514 | 6 | 182 | 6.4 | 9.7 | 0.00 | 0.00 | 0.00 | 79 | 1013.6 |
| 20260508090009 | 6 | 180 | 8.0 | 11.3 | 0.00 | 0.00 | 0.00 | 79 | 1013.5 |
| 20260508084508 | 6 | 185 | 8.0 | 11.3 | 0.00 | 0.00 | 0.00 | 78 | 1013.5 |
| 20260508083005 | 6 | 185 | 8.0 | 12.9 | 0.00 | 0.00 | 0.00 | 77 | 1013.4 |
| 20260508081502 | 6 | 186 | 11.3 | 16.1 | 0.00 | 0.00 | 0.00 | 75 | 1013.4 |
| 20260508080100 | 7 | 185 | 9.7 | 16.1 | 0.00 | 0.00 | 0.00 | 74 | 1013.3 |
| 20260508074601 | 7 | 186 | 9.7 | 12.9 | 0.00 | 0.00 | 0.00 | 74 | 1013.3 |
| 20260508073059 | 7 | 179 | 11.3 | 16.1 | 0.00 | 0.00 | 0.00 | 74 | 1013.3 |
| 20260508071559 | 7 | 188 | 11.3 | 16.1 | 0.00 | 0.00 | 0.00 | 74 | 1013.4 |
| 20260508064553 | 7 | 176 | 11.3 | 14.5 | 0.00 | 0.00 | 0.00 | 72 | 1013.6 |
| 20260508063056 | 7 | 179 | 9.7 | 12.9 | 0.00 | 0.00 | 0.00 | 73 | 1013.9 |
| 20260508061553 | 7 | 175 | 9.7 | 14.5 | 0.00 | 0.00 | 0.00 | 72 | 1013.7 |
| 20260508060056 | 7 | 167 | 9.7 | 14.5 | 0.00 | 0.00 | 0.00 | 73 | 1013.7 |
| 20260508054554 | 7 | 165 | 8.0 | 12.9 | 0.00 | 0.00 | 0.00 | 72 | 1013.8 |
| 20260508053055 | 7 | 172 | 11.3 | 14.5 | 0.00 | 0.00 | 0.00 | 71 | 1013.9 |
| 20260508051547 | 7 | 163 | 9.7 | 11.3 | 0.00 | 0.00 | 0.00 | 74 | 1013.9 |
| 20260508050045 | 7 | 160 | 6.4 | 12.9 | 0.00 | 0.00 | 0.00 | 74 | 1014.0 |
| 20260508044600 | 7 | 157 | 8.0 | 11.3 | 0.00 | 0.00 | 0.00 | 75 | 1013.8 |
| 20260508043045 | 7 | 153 | 6.4 | 11.3 | 0.00 | 0.00 | 0.00 | 74 | 1013.9 |
| 20260508041540 | 7 | 161 | 4.8 | 8.0 | 0.00 | 0.00 | 0.00 | 74 | 1014.0 |
| 20260508040036 | 7 | 165 | 8.0 | 11.3 | 0.00 | 0.00 | 0.00 | 76 | 1014.0 |
| 20260508034543 | 6 | 240 | 4.8 | 6.4 | 0.00 | 0.00 | 0.00 | 77 | 1013.9 |
| 20260508033034 | 6 | 240 | 4.8 | 6.4 | 0.00 | 0.00 | 0.00 | 77 | 1013.8 |
| 20260508031534 | 6 | 240 | 3.2 | 4.8 | 0.00 | 0.00 | 0.00 | 79 | 1013.9 |
| 20260508030042 | 6 | 240 | 1.6 | 4.8 | 0.00 | 0.00 | 0.00 | 78 | 1013.7 |
| 20260508024540 | 7 | 240 | 1.6 | 4.8 | 0.00 | 0.00 | 0.00 | 76 | 1013.8 |
| 20260508023033 | 8 | 240 | 3.2 | 4.8 | 0.00 | 0.00 | 0.00 | 78 | 1013.9 |
| 20260508021531 | 8 | 240 | 3.2 | 4.8 | 0.00 | 0.00 | 0.00 | 75 | 1013.9 |
| 20260508020031 | 8 | 240 | 3.2 | 4.8 | 0.00 | 0.00 | 0.00 | 74 | 1013.9 |
| 20260508014531 | 9 | 240 | 3.2 | 4.8 | 0.00 | 0.00 | 0.00 | 72 | 1013.9 |
| 20260508013030 | 9 | 240 | 1.6 | 4.8 | 0.00 | 0.00 | 0.00 | 71 | 1013.9 |
| 20260508011540 | 9 | 240 | 1.6 | 4.8 | 0.00 | 0.00 | 0.00 | 69 | 1013.7 |
| 20260508010030 | 10 | 240 | 1.6 | 4.8 | 0.00 | 0.00 | 0.00 | 65 | 1013.6 |
| 20260508004531 | 11 | 240 | 3.2 | 6.4 | 0.00 | 0.00 | 0.00 | 54 | 1013.5 |
| 20260508003028 | 12 | 265 | 3.2 | 9.7 | 0.00 | 0.00 | 0.00 | 46 | 1013.5 |
| 20260508001527 | 12 | 250 | 4.8 | 8.0 | 0.00 | 0.00 | 0.00 | 47 | 1013.3 |
| 20260508000025 | 13 | 251 | 3.2 | 6.4 | 0.00 | 0.00 | 0.00 | 43 | 1013.2 |
| 20260507234525 | 13 | 231 | 4.8 | 16.1 | 0.00 | 0.00 | 0.00 | 44 | 1013.0 |
| 20260507233030 | 13 | 258 | 4.8 | 14.5 | 0.00 | 0.00 | 0.00 | 45 | 1013.0 |
| 20260507231534 | 13 | 234 | 6.4 | 14.5 | 0.00 | 0.00 | 0.00 | 43 | 1013.1 |
| 20260507230022 | 13 | 265 | 12.9 | 22.5 | 0.00 | 0.00 | 0.00 | 44 | 1013.1 |
| 20260507224523 | 13 | 266 | 11.3 | 22.5 | 0.00 | 0.00 | 0.00 | 44 | 1013.0 |
| 20260507223020 | 13 | 271 | 14.5 | 22.5 | 0.00 | 0.00 | 0.00 | 42 | 1013.2 |
| 20260507221519 | 13 | 244 | 14.5 | 29.0 | 0.00 | 0.00 | 0.00 | 46 | 1013.2 |
| 20260507220022 | 13 | 275 | 17.7 | 30.6 | 0.00 | 0.00 | 0.00 | 45 | 1013.3 |
| 20260507214517 | 14 | 290 | 22.5 | 29.0 | 0.00 | 0.00 | 0.00 | 43 | 1013.1 |
| 20260507213022 | 13 | 288 | 12.9 | 22.5 | 0.00 | 0.00 | 0.00 | 46 | 1013.2 |
| 20260507211514 | 13 | 272 | 19.3 | 27.4 | 0.00 | 0.00 | 0.00 | 43 | 1013.0 |
| 20260507210013 | 13 | 292 | 17.7 | 24.1 | 0.00 | 0.00 | 0.00 | 46 | 1012.9 |
| 20260507204512 | 13 | 269 | 19.3 | 30.6 | 0.00 | 0.00 | 0.00 | 46 | 1012.9 |
| 20260507203111 | 13 | 291 | 12.9 | 30.6 | 0.00 | 0.00 | 0.00 | 43 | 1012.9 |
| 20260507201510 | 13 | 257 | 19.3 | 29.0 | 0.00 | 0.00 | 0.00 | 44 | 1012.9 |
| 20260507200008 | 13 | 244 | 20.9 | 30.6 | 0.00 | 0.00 | 0.00 | 45 | 1013.0 |
| 20260507194511 | 13 | 275 | 20.9 | 27.4 | 0.00 | 0.00 | 0.00 | 45 | 1013.1 |
| 20260507193005 | 13 | 261 | 25.7 | 37.0 | 0.00 | 0.00 | 0.00 | 49 | 1013.0 |
| 20260507191504 | 13 | 261 | 17.7 | 32.2 | 0.00 | 0.00 | 0.00 | 47 | 1013.2 |
| 20260507190004 | 13 | 217 | 9.7 | 38.6 | 0.00 | 0.00 | 0.00 | 45 | 1013.1 |
| 20260507184600 | 13 | 232 | 17.7 | 29.0 | 0.00 | 0.00 | 0.00 | 46 | 1013.3 |
| 20260507183105 | 13 | 230 | 17.7 | 27.4 | 0.00 | 0.00 | 0.00 | 50 | 1013.2 |
| 20260507181554 | 12 | 252 | 12.9 | 27.4 | 0.00 | 0.00 | 0.00 | 51 | 1013.4 |